Tracking 31027 objects as of 19-Jul-2025
HD Live streaming from Space Station
objects crossing your sky now

COSMOS 1814 DEB *

Track COSMOS 1814 DEB * now!
10-day predictions


NORAD ID: 18257
Int'l Code: 1987-006C
Perigee: 668.4 km
Apogee: 673.6 km
Inclination: 74.0 °
Period: 98.0 minutes
Semi major axis: 7042 km
RCS: 0.0165 m2 (small)
Launch date: January 21, 1987
Source: Commonwealth of Independent States (former USSR) (CIS)
Launch site: PLESETSK MISSILE AND SPACE COMPLEX (PKMTR)

Note: This is SATELLITE DEBRIS
Your satellite tracking list
COSMOS 1656
Track 1 satellite(s)




NASA's NSSDC Master Catalog

Two Line Element Set (TLE):
1 18257U 87006C   25199.53421881  .00001613  00000-0  27969-3 0  9999
2 18257  74.0326 252.8698 0003733  77.1031 283.0556 14.69122325106081
Source of the keplerian elements: AFSPC